Stündliche Wetter Cauterets

Heute, 16 Januar, Samstag

Zeit Temperatur Niederschläge Wind Luftdruck Luftfeuchtigkeit
00:00 -13°C° 0 mm 3 m/S 581 mmHg 91%
01:00 -13°C° 0 mm 3 m/S 581 mmHg 87%
02:00 -13°C° 0 mm 3 m/S 580 mmHg 84%
03:00 -14°C° 0 mm 3 m/S 580 mmHg 81%
04:00 -14°C° 0 mm 3 m/S 580 mmHg 76%
05:00 -14°C° 0 mm 3 m/S 581 mmHg 71%
06:00 -14°C° 0 mm 3 m/S 581 mmHg 66%
07:00 -12°C° 0 mm 2 m/S 581 mmHg 65%
08:00 -10°C° 0 mm 2 m/S 582 mmHg 64%
09:00 -9°C° 0 mm 2 m/S 583 mmHg 63%
10:00 -7°C° 0 mm 2 m/S 583 mmHg 67%
11:00 -6°C° 0 mm 2 m/S 584 mmHg 70%
12:00 -4°C° 0 mm 2 m/S 585 mmHg 74%
13:00 -4°C° 0 mm 2 m/S 584 mmHg 75%
14:00 -4°C° 0 mm 2 m/S 584 mmHg 77%
15:00 -5°C° 0 mm 2 m/S 584 mmHg 79%
16:00 -5°C° 0 mm 2 m/S 584 mmHg 75%
17:00 -6°C° 0 mm 2 m/S 583 mmHg 72%
18:00 -7°C° 0 mm 2 m/S 583 mmHg 69%
19:00 -7°C° 0 mm 2 m/S 583 mmHg 73%
20:00 -7°C° 0 mm 2 m/S 584 mmHg 77%
21:00 -6°C° 0 mm 2 m/S 584 mmHg 81%
22:00 -6°C° 0 mm 2 m/S 584 mmHg 82%
23:00 -6°C° 0 mm 2 m/S 584 mmHg 82%

Morgen, 17 Januar, Sonntag

Zeit Temperatur Niederschläge Wind Luftdruck Luftfeuchtigkeit
00:00 -6°C° 0 mm 2 m/S 584 mmHg 83%
01:00 -6°C° 0 mm 2 m/S 584 mmHg 85%
02:00 -6°C° 0 mm 2 m/S 583 mmHg 87%
03:00 -6°C° 0 mm 2 m/S 583 mmHg 90%
04:00 -5°C° 0 mm 2 m/S 583 mmHg 91%
05:00 -5°C° 0 mm 2 m/S 583 mmHg 92%
06:00 -5°C° 0 mm 2 m/S 583 mmHg 93%
07:00 -5°C° 0.6 mm 2 m/S 583 mmHg 94%
08:00 -4°C° 0.6 mm 2 m/S 584 mmHg 95%
09:00 -4°C° 0.6 mm 2 m/S 584 mmHg 96%
10:00 -4°C° 0.6 mm 2 m/S 584 mmHg 96%
11:00 -4°C° 0.6 mm 2 m/S 584 mmHg 96%
12:00 -3°C° 0.6 mm 2 m/S 584 mmHg 96%
13:00 -3°C° 0.8 mm 2 m/S 584 mmHg 96%
14:00 -4°C° 0.8 mm 2 m/S 584 mmHg 97%
15:00 -5°C° 0.8 mm 3 m/S 583 mmHg 97%
16:00 -5°C° 0.4 mm 3 m/S 583 mmHg 97%
17:00 -5°C° 0.4 mm 3 m/S 584 mmHg 97%
18:00 -6°C° 0.4 mm 3 m/S 584 mmHg 96%
19:00 -5°C° 0.1 mm 2 m/S 584 mmHg 96%
20:00 -5°C° 0.1 mm 2 m/S 584 mmHg 96%
21:00 -5°C° 0.1 mm 2 m/S 584 mmHg 96%
22:00 -5°C° 0 mm 2 m/S 584 mmHg 96%
23:00 -5°C° 0 mm 2 m/S 584 mmHg 96%

übermorgen, 18 Januar, Montag

Zeit Temperatur Niederschläge Wind Luftdruck Luftfeuchtigkeit
00:00 -5°C° 0 mm 2 m/S 584 mmHg 95%
01:00 -6°C° 0 mm 2 m/S 584 mmHg 95%
02:00 -6°C° 0 mm 2 m/S 584 mmHg 94%
03:00 -6°C° 0 mm 2 m/S 583 mmHg 94%
04:00 -7°C° 0 mm 2 m/S 583 mmHg 94%
05:00 -6°C° 0 mm 1 m/S 583 mmHg 93%
06:00 -6°C° 0 mm 1 m/S 583 mmHg 93%
07:00 -6°C° 0 mm 1 m/S 583 mmHg 92%
08:00 -4°C° 0 mm 1 m/S 583 mmHg 91%
09:00 -4°C° 0 mm 1 m/S 584 mmHg 90%
10:00 -3°C° 0 mm 1 m/S 584 mmHg 89%
11:00 -2°C° 0 mm 1 m/S 585 mmHg 87%
12:00 -1°C° 0 mm 1 m/S 585 mmHg 86%
13:00 -1°C° 0 mm 1 m/S 584 mmHg 87%
14:00 -2°C° 0 mm 1 m/S 584 mmHg 88%
15:00 -2°C° 0 mm 1 m/S 584 mmHg 89%
16:00 -3°C° 0 mm 1 m/S 583 mmHg 85%
17:00 -6°C° 0 mm 1 m/S 582 mmHg 81%
18:00 -8°C° 0 mm 2 m/S 582 mmHg 77%
19:00 -7°C° 0 mm 1 m/S 582 mmHg 74%
20:00 -7°C° 0 mm 1 m/S 582 mmHg 71%
21:00 -7°C° 0 mm 1 m/S 582 mmHg 68%
22:00 -8°C° 0 mm 2 m/S 582 mmHg 69%
23:00 -8°C° 0 mm 2 m/S 582 mmHg 69%

19 Januar, Dienstag

Zeit Temperatur Niederschläge Wind Luftdruck Luftfeuchtigkeit
00:00 -8°C° 0 mm 2 m/S 582 mmHg 70%
01:00 -8°C° 0 mm 2 m/S 581 mmHg 72%
02:00 -8°C° 0 mm 2 m/S 581 mmHg 74%
03:00 -8°C° 0 mm 2 m/S 581 mmHg 75%
04:00 -8°C° 0 mm 2 m/S 581 mmHg 76%
05:00 -8°C° 0 mm 2 m/S 580 mmHg 76%
06:00 -7°C° 0 mm 2 m/S 580 mmHg 76%
07:00 -7°C° 0 mm 2 m/S 581 mmHg 77%
08:00 -7°C° 0 mm 3 m/S 581 mmHg 77%
09:00 -6°C° 0 mm 3 m/S 581 mmHg 78%
10:00 -5°C° 0 mm 3 m/S 581 mmHg 78%
11:00 -4°C° 0 mm 3 m/S 582 mmHg 78%
12:00 -2°C° 0 mm 3 m/S 582 mmHg 77%
13:00 -2°C° 0 mm 3 m/S 581 mmHg 77%
14:00 -2°C° 0 mm 3 m/S 581 mmHg 76%
15:00 -2°C° 0 mm 3 m/S 580 mmHg 76%
16:00 -5°C° 0 mm 3 m/S 579 mmHg 72%
17:00 -7°C° 0 mm 4 m/S 579 mmHg 68%
18:00 -8°C° 0 mm 4 m/S 578 mmHg 64%
19:00 -8°C° 0 mm 4 m/S 578 mmHg 64%
20:00 -8°C° 0 mm 4 m/S 578 mmHg 64%
21:00 -8°C° 0 mm 4 m/S 578 mmHg 64%
22:00 -8°C° 0 mm 4 m/S 577 mmHg 65%
23:00 -8°C° 0 mm 5 m/S 577 mmHg 67%

20 Januar, Mittwoch

Zeit Temperatur Niederschläge Wind Luftdruck Luftfeuchtigkeit
00:00 -8°C° 0 mm 5 m/S 577 mmHg 69%
01:00 -8°C° 0 mm 5 m/S 576 mmHg 68%
02:00 -8°C° 0 mm 5 m/S 576 mmHg 67%
03:00 -8°C° 0 mm 5 m/S 575 mmHg 66%
04:00 -8°C° 0 mm 5 m/S 574 mmHg 68%
05:00 -10°C° 0 mm 5 m/S 574 mmHg 69%
06:00 -10°C° 0 mm 5 m/S 574 mmHg 71%
07:00 -8°C° 0 mm 5 m/S 574 mmHg 71%
08:00 -8°C° 0 mm 5 m/S 574 mmHg 71%
09:00 -7°C° 0 mm 5 m/S 574 mmHg 72%
10:00 -7°C° 0.2 mm 5 m/S 573 mmHg 74%
11:00 -7°C° 0.2 mm 5 m/S 573 mmHg 77%
12:00 -6°C° 0.2 mm 5 m/S 573 mmHg 80%
13:00 -7°C° 1.1 mm 5 m/S 572 mmHg 81%
14:00 -7°C° 1.1 mm 5 m/S 572 mmHg 83%
15:00 -7°C° 1.1 mm 5 m/S 571 mmHg 84%
16:00 -7°C° 0.6 mm 4 m/S 571 mmHg 85%
17:00 -7°C° 0.6 mm 4 m/S 571 mmHg 85%
18:00 -7°C° 0.6 mm 4 m/S 571 mmHg 86%
19:00 -7°C° 0.6 mm 4 m/S 571 mmHg 86%
20:00 -7°C° 0.6 mm 4 m/S 571 mmHg 86%
21:00 -5°C° 0.6 mm 4 m/S 572 mmHg 87%
22:00 -6°C° 1 mm 3 m/S 572 mmHg 88%
23:00 -5°C° 1 mm 2 m/S 572 mmHg 90%

21 Januar, Donnerstag

Zeit Temperatur Niederschläge Wind Luftdruck Luftfeuchtigkeit
00:00 -5°C° 1 mm 2 m/S 572 mmHg 91%
01:00 -5°C° 0.4 mm 2 m/S 573 mmHg 92%
02:00 -3°C° 0.4 mm 1 m/S 573 mmHg 94%
03:00 -3°C° 0.4 mm 1 m/S 573 mmHg 95%
04:00 -3°C° 0.2 mm 1 m/S 574 mmHg 95%
05:00 -4°C° 0.2 mm 1 m/S 574 mmHg 96%
06:00 -4°C° 0.2 mm 1 m/S 574 mmHg 97%
07:00 -4°C° 0 mm 1 m/S 574 mmHg 96%
08:00 -3°C° 0 mm 1 m/S 575 mmHg 96%
09:00 -3°C° 0 mm 1 m/S 575 mmHg 95%
10:00 -3°C° 0 mm 1 m/S 575 mmHg 94%
11:00 -2°C° 0 mm 1 m/S 575 mmHg 92%
12:00 -2°C° 0 mm 1 m/S 575 mmHg 90%
13:00 -3°C° 0.1 mm 2 m/S 575 mmHg 90%
14:00 -3°C° 0.1 mm 2 m/S 574 mmHg 90%
15:00 -4°C° 0.1 mm 3 m/S 574 mmHg 89%
16:00 -5°C° 1.1 mm 3 m/S 573 mmHg 90%
17:00 -5°C° 1.1 mm 3 m/S 572 mmHg 90%
18:00 -6°C° 1.1 mm 3 m/S 572 mmHg 91%
19:00 -6°C° 2.1 mm 3 m/S 571 mmHg 91%
20:00 -6°C° 2.1 mm 3 m/S 570 mmHg 91%
21:00 -6°C° 2.1 mm 3 m/S 570 mmHg 91%
22:00 -6°C° 2 mm 3 m/S 570 mmHg 92%
23:00 -6°C° 2 mm 3 m/S 569 mmHg 92%
Mehr zeigen

Wir brauchen deine Erlaubnis

Meteoprog und unser Service Anbieter werden persönliche Daten aufbewahren, so wie Cookies, Geräte Bezeichnung oder ähnliche Technologien von deinem Gerät und Prozess, so wie Persönliche Daten Inhalte und Werbungen, genauso wie social Media und den Verkehr zu analysieren.

  • Aufbewahrung und/oder Zugang zu deiner Geräte Informationen.

    Cookies, Geräte Bezeichnung oder andere Informationen, können aufbewahrt oder Zugang zu deinem Gerät erhalten, für den Grund, der oben angegeben wird.

  • Personalisierte Werbung und Inhalte, Messungen, Einblick in das Publikum und Produkt Entwicklung.

    Werbungen und Inhalte können personalisiert werden, basierend auf ein Profil. Mehr Daten können besser personalisierte Werbungen und Inhalte hinzufügen. Werbung und Inhalte können gezeigt und gemessen werden. Einblicke über das Publikum, welche die Werbung gesehen haben und den Inhalt, können abgeleitet werden. So wie Daten können genutzt werden, um es zu verbessern oder die Benutzer Erfahrung zu verbessern das System und die Software.

Wenn du “Ich stimme zu” klickst, erlaubst du uns, die Cookies zu benutzen die Geräte Bezeichnung, den Web oder ähnliche Technologien zu benutzen. Deine Settings, können in deinem Gerät bei deinem Browser geändert werden.

Für den bestimmten Zweck, berechtigten Interessen beruhen darauf, mehr als auf den Inhalt. Du kannst mehr darüber in unseren Privaten und Cookie Politik lesen.